Вернуться в каталог

COSMOS 886 DEB *

АктивенLEO
NORAD 19425·DEBRIS·🇷🇺 Russia

Запущен Dec 27, 1976 с Baikonur Cosmodrome

Loading…

Ближайшие Пролёты (ближайшие 24 часа)

TLE

СвежийSource: Space-Track

Эпоха: Sep 13, 2026, 22:51 UTC

1 19425U 76126CC  26256.95276824  .00000320  00000-0  13925-2 0  9994
2 19425  66.2207 247.6811 0325224 141.5579 248.0165 12.77021623626444

Отслеживайте COSMOS 886 DEB * в реальном времени с AllMySat

Download on the App Store